Regional Weather Roundup
Issued by NWS New Orleans/Baton Rouge, LA

Home | Current Version | Previous Version | Text Only | Print | Product List | Glossary On
Versions: 1 2 3 4 5 6 7 8 9 10 11 12 13 14 15 16 17 18 19 20 21 22 23 24 25 26 27 28 29 30 31 32 33 34 35 36 37 38 39 40 41 42 43 44 45 46 47 48 49 50
298
ASUS44 KLIX 271111
RWRLIX
NEW ORLEANS REGIONAL WEATHER ROUNDUP
NATIONAL WEATHER SERVICE NEW ORLEANS LA
600 AM CDT FRI MAR 27 2015

NOTE: "FAIR" INDICATES FEW OR NO CLOUDS BELOW 12,000 FEET WITH NO
      SIGNIFICANT WEATHER AND/OR OBSTRUCTIONS TO VISIBILITY.
      SKY/WX - SKY CONDITION AND SIGNIFICANT WEATHER.
      TMP - AIR TEMPERATURE.     DP    - DEWPOINT TEMPERATURE.
      RH  - RELATIVE HUMIDITY.   PRES  - PRESSURE.
      HI  - HEAT INDEX.          WCI   - WIND CHILL INDEX.

*  THESE STATIONS ARE NOT NWS OR FAA STATIONS AND ARE NOT UNDER
   NWS QUALITY CONTROL.

LAZ038-040-048-061>063-065>067-069-271200-
SOUTHEAST LOUISIANA

CITY           SKY/WX    TMP DP  RH WIND       PRES   REMARKS
N.O. AUDUBON     N/A     53  50  89 MISG        N/A
N.O. INTL ARPT CLOUDY    54  45  71 N14       30.00R
N.O. LAKEFRONT CLOUDY    55  46  71 N24G32    30.00R
SLIDELL        CLOUDY    52  46  80 N9        29.98R
BATON ROUGE    CLEAR     47  40  76 NW7       30.04R
BOOTHVILLE     CLOUDY    57  52  83 N13G24    29.95R
BELLE CHASSE   CLOUDY    55  47  74 N10G18    29.98R
BOGALUSA*        N/A     52  43  73 N13G18    30.01R
GALLIANO*      CLOUDY    55  49  80 MISG      30.00R
NEW ROADS*       N/A     47  38  71 NW6       30.06R
GONZALES*        N/A     49  45  87 NW7       30.02R
HAMMOND*       CLOUDY    52  43  71 N9        30.02S
HOUMA*         CLOUDY    53  48  82 N12       30.00R
PORT FOURCHON* CLOUDY    55  50  82 NW20G28   30.01R

$$

MSZ070-080>082-271200-
SOUTHERN MISSISSIPPI

CITY           SKY/WX    TMP DP  RH WIND       PRES   REMARKS
MCCOMB         MOCLDY    46  42  86 NW5       30.01R
GULFPORT       CLOUDY    53  46  77 N14G28    29.94R
BILOXI         CLOUDY    53  48  82 N15G23    29.93R
PASCAGOULA     CLOUDY    53  48  83 N14G22    29.92R

$$

COASTAL OBSERVATIONS
LAKE AND NEARSHORE STATIONS

STATION/POSITION TIME  TEMP    WIND        PRES    WAVE
                       AIR SEA DIR/SP/G            HT/PER
                 (UTC) (F)     (DEG/KT/KT) (MB)    (FT/S)
PASCAGOULA       1000   55     350/ 14/ 21 1011.5
WAVELAND YACHT   1000   54 67  350/ 18/ 23 1013.2
GRAND ISLE       1000   58 70  340/ 18/ 23 1013.5
SOUTHWEST PASS   1000   57 51  360/ 14/ 17 1012.8
NEW CANAL        1000   55     350/ 20/ 25 1014.8
SHELL BEACH      1000   56 69  340/ 22/ 26 1013.5

OFFSHORE STATIONS

STATION/POSITION TIME  TEMP    WIND        PRES    WAVE
                       AIR SEA DIR/SP/G            HT/PER
                 (UTC) (F)     (DEG/KT/KT) (MB)    (FT/S)
64 S DAUPHIN ISL 1050   64 72  330/ 19/ 23 1011.0    3/ 4

$$




USA.gov is the U.S. government's official web portal to all federal, state and local government web resources and services.